Time,TemperatureF,DewpointF,PressureIn,WindDirection,WindDirectionDegrees,WindSpeedMPH,WindSpeedGustMPH,Humidity,HourlyPrecipIn,Conditions,Clouds,dailyrainin,SolarRadiationWatts/m^2,SoftwareType,DateUTC
2013-08-07 00:01:00,60.0,23.0,-100.00,ESE,118,0.0,0.0,24,0.00,,,0.00,0.000000,,2013-08-07 07:01:00,
2013-08-07 00:33:00,57.0,26.0,-100.00,WSW,237,0.0,0.0,30,0.00,,,-99.99,0.000000,,2013-08-07 07:33:00,
2013-08-07 00:43:00,57.0,26.0,-100.00,WSW,237,0.0,0.0,30,0.00,,,-99.99,0.000000,,2013-08-07 07:43:00,
2013-08-07 00:52:00,57.0,26.0,-100.00,WSW,237,0.0,0.0,30,0.00,,,-99.99,0.000000,,2013-08-07 07:52:00,
2013-08-07 01:01:00,57.0,26.0,-100.00,WSW,237,0.0,0.0,30,0.00,,,-99.99,0.000000,,2013-08-07 08:01:00,
2013-08-07 01:11:00,57.0,26.0,-100.00,WSW,237,0.0,0.0,30,0.00,,,-99.99,0.000000,,2013-08-07 08:11:00,
2013-08-07 01:44:00,61.0,26.0,-100.00,SSE,150,0.0,0.0,26,0.00,,,0.00,0.000000,,2013-08-07 08:44:00,
2013-08-07 01:52:00,61.0,26.0,-100.00,SSE,150,0.0,0.0,26,0.00,,,0.00,0.000000,,2013-08-07 08:52:00,
2013-08-07 02:01:00,61.0,26.0,-100.00,SSE,150,0.0,0.0,26,0.00,,,0.00,0.000000,,2013-08-07 09:01:00,
2013-08-07 02:11:00,61.0,26.0,-100.00,SSE,150,0.0,0.0,26,0.00,,,0.00,0.000000,,2013-08-07 09:11:00,
2013-08-07 02:43:00,58.0,25.0,-100.00,SW,231,0.0,0.0,28,0.00,,,0.00,0.000000,,2013-08-07 09:43:00,
2013-08-07 02:54:00,58.0,25.0,-100.00,SW,231,0.0,0.0,28,0.00,,,0.00,0.000000,,2013-08-07 09:54:00,
2013-08-07 03:01:00,58.0,25.0,-100.00,SW,231,0.0,0.0,28,0.00,,,0.00,0.000000,,2013-08-07 10:01:00,
2013-08-07 03:11:00,58.0,25.0,-100.00,SW,231,0.0,0.0,28,0.00,,,0.00,0.000000,,2013-08-07 10:11:00,
2013-08-07 03:43:00,58.0,17.0,-100.00,SW,217,0.0,0.0,20,0.00,,,0.00,0.000000,,2013-08-07 10:43:00,
2013-08-07 03:52:00,58.0,17.0,-100.00,SW,217,0.0,0.0,20,0.00,,,0.00,0.000000,,2013-08-07 10:52:00,
2013-08-07 04:01:00,58.0,17.0,-100.00,SW,217,0.0,0.0,20,0.00,,,0.00,0.000000,,2013-08-07 11:01:00,
2013-08-07 04:11:00,58.0,17.0,-100.00,SW,217,0.0,0.0,20,0.00,,,0.00,0.000000,,2013-08-07 11:11:00,
2013-08-07 04:43:00,58.0,11.0,-100.00,SW,236,0.0,0.0,15,0.00,,,0.00,0.000000,,2013-08-07 11:43:00,
2013-08-07 04:52:00,58.0,11.0,-100.00,SW,236,0.0,0.0,15,0.00,,,0.00,0.000000,,2013-08-07 11:52:00,
2013-08-07 05:02:00,58.0,11.0,-100.00,SW,236,0.0,0.0,15,0.00,,,0.00,0.000000,,2013-08-07 12:02:00,
2013-08-07 05:11:00,58.0,11.0,-100.00,SW,236,0.0,0.0,15,0.00,,,0.00,0.000000,,2013-08-07 12:11:00,
2013-08-07 05:43:00,58.0,11.0,-100.00,WSW,239,0.0,0.0,15,0.00,,,0.00,0.000000,,2013-08-07 12:43:00,
2013-08-07 05:52:00,58.0,11.0,-100.00,WSW,239,0.0,0.0,15,0.00,,,0.00,0.000000,,2013-08-07 12:52:00,
2013-08-07 06:02:00,58.0,11.0,-100.00,WSW,239,0.0,0.0,15,0.00,,,0.00,0.000000,,2013-08-07 13:02:00,
2013-08-07 06:11:00,58.0,11.0,-100.00,WSW,239,0.0,0.0,15,0.00,,,0.00,0.000000,,2013-08-07 13:11:00,
2013-08-07 06:44:00,60.0,11.0,-100.00,WSW,245,0.0,0.0,14,0.00,,,0.00,12.000000,,2013-08-07 13:44:00,
2013-08-07 06:53:00,60.0,11.0,-100.00,WSW,245,0.0,0.0,14,0.00,,,0.00,12.000000,,2013-08-07 13:53:00,
2013-08-07 08:43:00,68.0,14.0,-100.00,SW,218,0.0,2.0,12,-99.99,,,0.00,429.000000,,2013-08-07 15:43:00,
2013-08-07 08:53:00,68.0,14.0,-100.00,SW,218,0.0,2.0,12,-99.99,,,0.00,429.000000,,2013-08-07 15:53:00,
2013-08-07 09:02:00,68.0,14.0,-100.00,SW,218,0.0,2.0,12,-99.99,,,0.00,429.000000,,2013-08-07 16:02:00,
2013-08-07 09:11:00,68.0,14.0,-100.00,SW,218,0.0,2.0,12,-99.99,,,0.00,429.000000,,2013-08-07 16:11:00,
2013-08-07 09:43:00,70.0,15.0,-100.00,WSW,246,0.0,8.0,12,0.00,,,0.00,624.000000,,2013-08-07 16:43:00,
2013-08-07 09:53:00,70.0,15.0,-100.00,WSW,246,0.0,8.0,12,0.00,,,0.00,624.000000,,2013-08-07 16:53:00,
2013-08-07 10:01:00,70.0,15.0,-100.00,WSW,246,0.0,8.0,12,0.00,,,0.00,624.000000,,2013-08-07 17:01:00,
2013-08-07 10:11:00,70.0,15.0,-100.00,WSW,246,0.0,8.0,12,0.00,,,0.00,624.000000,,2013-08-07 17:11:00,
2013-08-07 10:33:00,71.0,14.0,-100.00,West,260,0.0,0.0,11,0.00,,,0.00,783.000000,,2013-08-07 17:33:00,
2013-08-07 10:43:00,71.0,14.0,-100.00,West,260,0.0,0.0,11,0.00,,,0.00,783.000000,,2013-08-07 17:43:00,
2013-08-07 10:52:00,71.0,14.0,-100.00,West,260,0.0,0.0,11,0.00,,,0.00,783.000000,,2013-08-07 17:52:00,
2013-08-07 11:02:00,71.0,14.0,-100.00,West,260,0.0,0.0,11,0.00,,,0.00,783.000000,,2013-08-07 18:02:00,
2013-08-07 11:11:00,71.0,14.0,-100.00,West,260,0.0,0.0,11,0.00,,,0.00,783.000000,,2013-08-07 18:11:00,
2013-08-07 11:43:00,74.0,14.0,-100.00,WSW,254,0.0,0.0,10,0.00,,,0.00,894.000000,,2013-08-07 18:43:00,
2013-08-07 11:52:00,74.0,14.0,-100.00,WSW,254,0.0,0.0,10,0.00,,,0.00,894.000000,,2013-08-07 18:52:00,
2013-08-07 12:01:00,74.0,14.0,-100.00,WSW,254,0.0,0.0,10,0.00,,,0.00,894.000000,,2013-08-07 19:01:00,
2013-08-07 12:11:00,74.0,14.0,-100.00,WSW,254,0.0,0.0,10,0.00,,,0.00,894.000000,,2013-08-07 19:11:00,
2013-08-07 12:44:00,76.0,16.0,-100.00,West,260,0.0,0.0,10,0.00,,,0.00,955.000000,,2013-08-07 19:44:00,
2013-08-07 12:52:00,76.0,16.0,-100.00,West,260,0.0,0.0,10,0.00,,,0.00,955.000000,,2013-08-07 19:52:00,
2013-08-07 13:02:00,76.0,16.0,-100.00,West,260,0.0,0.0,10,0.00,,,0.00,955.000000,,2013-08-07 20:02:00,
2013-08-07 13:11:00,76.0,16.0,-100.00,West,260,0.0,0.0,10,0.00,,,0.00,955.000000,,2013-08-07 20:11:00,
2013-08-07 13:43:00,74.0,18.0,-100.00,SE,124,0.0,8.0,12,0.00,,,0.00,650.000000,,2013-08-07 20:43:00,
2013-08-07 13:52:00,74.0,18.0,-100.00,SE,124,0.0,8.0,12,0.00,,,0.00,650.000000,,2013-08-07 20:52:00,
2013-08-07 14:01:00,74.0,18.0,-100.00,SE,124,0.0,8.0,12,0.00,,,0.00,650.000000,,2013-08-07 21:01:00,
2013-08-07 14:11:00,74.0,18.0,-100.00,SE,124,0.0,8.0,12,0.00,,,0.00,650.000000,,2013-08-07 21:11:00,
2013-08-07 14:12:00,73.0,19.0,-100.00,ESE,118,0.0,0.0,13,0.00,,,0.00,494.000000,,2013-08-07 21:12:00,
2013-08-07 14:43:00,73.0,19.0,-100.00,ESE,118,0.0,0.0,13,0.00,,,0.00,494.000000,,2013-08-07 21:43:00,
2013-08-07 14:52:00,73.0,19.0,-100.00,ESE,118,0.0,0.0,13,0.00,,,0.00,494.000000,,2013-08-07 21:52:00,
2013-08-07 15:01:00,73.0,19.0,-100.00,ESE,118,0.0,0.0,13,0.00,,,0.00,494.000000,,2013-08-07 22:01:00,
2013-08-07 15:43:00,71.0,21.0,-100.00,SE,135,0.0,0.0,15,0.00,,,0.00,248.000000,,2013-08-07 22:43:00,
2013-08-07 15:52:00,71.0,21.0,-100.00,SE,135,0.0,0.0,15,0.00,,,0.00,248.000000,,2013-08-07 22:52:00,
2013-08-07 16:01:00,71.0,21.0,-100.00,SE,135,0.0,0.0,15,0.00,,,0.00,248.000000,,2013-08-07 23:01:00,
2013-08-07 16:11:00,71.0,21.0,-100.00,SE,135,0.0,0.0,15,0.00,,,0.00,248.000000,,2013-08-07 23:11:00,
2013-08-07 16:43:00,71.0,21.0,-100.00,SE,141,0.0,0.0,15,0.00,,,0.00,227.000000,,2013-08-07 23:43:00,
2013-08-07 16:52:00,71.0,21.0,-100.00,SE,141,0.0,0.0,15,0.00,,,0.00,227.000000,,2013-08-07 23:52:00,
2013-08-07 17:01:00,71.0,21.0,-100.00,SE,141,0.0,0.0,15,0.00,,,0.00,227.000000,,2013-08-08 00:01:00,
2013-08-07 17:11:00,71.0,21.0,-100.00,SE,141,0.0,0.0,15,0.00,,,0.00,227.000000,,2013-08-08 00:11:00,
2013-08-07 17:43:00,75.0,21.0,-100.00,SE,138,0.0,0.0,13,0.00,,,0.00,368.000000,,2013-08-08 00:43:00,
2013-08-07 17:52:00,75.0,21.0,-100.00,SE,138,0.0,0.0,13,0.00,,,0.00,368.000000,,2013-08-08 00:52:00,
2013-08-07 18:02:00,75.0,21.0,-100.00,SE,138,0.0,0.0,13,0.00,,,0.00,368.000000,,2013-08-08 01:02:00,
2013-08-07 18:11:00,75.0,21.0,-100.00,SE,138,0.0,0.0,13,0.00,,,0.00,368.000000,,2013-08-08 01:11:00,
2013-08-07 18:43:00,71.0,24.0,-100.00,ENE,72,0.0,0.0,17,0.00,,,0.00,340.000000,,2013-08-08 01:43:00,
2013-08-07 18:52:00,71.0,24.0,-100.00,ENE,72,0.0,0.0,17,0.00,,,0.00,340.000000,,2013-08-08 01:52:00,
2013-08-07 19:02:00,71.0,24.0,-100.00,ENE,72,0.0,0.0,17,0.00,,,0.00,340.000000,,2013-08-08 02:02:00,
2013-08-07 19:11:00,71.0,24.0,-100.00,ENE,72,0.0,0.0,17,0.00,,,0.00,340.000000,,2013-08-08 02:11:00,
2013-08-07 19:43:00,65.0,22.0,-100.00,SSE,148,0.0,0.0,19,0.00,,,0.00,90.000000,,2013-08-08 02:43:00,
2013-08-07 19:52:00,65.0,22.0,-100.00,SSE,148,0.0,0.0,19,0.00,,,0.00,90.000000,,2013-08-08 02:52:00,
2013-08-07 20:01:00,65.0,22.0,-100.00,SSE,148,0.0,0.0,19,0.00,,,0.00,90.000000,,2013-08-08 03:01:00,
2013-08-07 20:11:00,65.0,22.0,-100.00,SSE,148,0.0,0.0,19,0.00,,,0.00,90.000000,,2013-08-08 03:11:00,
2013-08-07 20:43:00,64.0,24.0,-100.00,SSE,147,0.0,0.0,22,0.00,,,0.00,16.000000,,2013-08-08 03:43:00,
2013-08-07 20:52:00,64.0,24.0,-100.00,SSE,147,0.0,0.0,22,0.00,,,0.00,16.000000,,2013-08-08 03:52:00,
2013-08-07 21:01:00,64.0,24.0,-100.00,SSE,147,0.0,0.0,22,0.00,,,0.00,16.000000,,2013-08-08 04:01:00,
2013-08-07 21:11:00,64.0,24.0,-100.00,SSE,147,0.0,0.0,22,0.00,,,0.00,16.000000,,2013-08-08 04:11:00,
2013-08-07 21:33:00,63.0,25.0,-100.00,West,264,0.0,0.0,23,0.00,,,0.00,0.000000,,2013-08-08 04:33:00,
2013-08-07 21:44:00,63.0,25.0,-100.00,West,264,0.0,0.0,23,0.00,,,0.00,0.000000,,2013-08-08 04:44:00,
2013-08-07 21:53:00,63.0,25.0,-100.00,West,264,0.0,0.0,23,0.00,,,0.00,0.000000,,2013-08-08 04:53:00,
2013-08-07 22:01:00,63.0,25.0,-100.00,West,264,0.0,0.0,23,0.00,,,0.00,0.000000,,2013-08-08 05:01:00,
2013-08-07 22:11:00,63.0,25.0,-100.00,West,264,0.0,0.0,23,0.00,,,0.00,0.000000,,2013-08-08 05:11:00,
2013-08-07 22:33:00,61.0,27.0,-100.00,SSE,165,0.0,0.0,27,0.00,,,0.00,0.000000,,2013-08-08 05:33:00,
2013-08-07 22:43:00,61.0,27.0,-100.00,SSE,165,0.0,0.0,27,0.00,,,0.00,0.000000,,2013-08-08 05:43:00,
2013-08-07 22:52:00,61.0,27.0,-100.00,SSE,165,0.0,0.0,27,0.00,,,0.00,0.000000,,2013-08-08 05:52:00,
2013-08-07 23:01:00,61.0,27.0,-100.00,SSE,165,0.0,0.0,27,0.00,,,0.00,0.000000,,2013-08-08 06:01:00,
2013-08-07 23:11:00,61.0,27.0,-100.00,SSE,165,0.0,0.0,27,0.00,,,0.00,0.000000,,2013-08-08 06:11:00,
2013-08-07 23:12:00,59.0,22.0,-100.00,South,173,0.0,0.0,24,0.00,,,0.00,0.000000,,2013-08-08 06:12:00,
2013-08-07 23:43:00,59.0,22.0,-100.00,South,173,0.0,0.0,24,0.00,,,0.00,0.000000,,2013-08-08 06:43:00,
2013-08-07 23:52:00,59.0,22.0,-100.00,South,173,0.0,0.0,24,0.00,,,0.00,0.000000,,2013-08-08 06:52:00,